Location: Newark
(49.3000°N, 9.4667°E)
Time: 14:05:38
(UTC+00:00)

Transit 2A Rocket - Pass Details

Date: 22 May 2019
Orbit: 586 x 917 km, 66.7° (Epoch: 20 June)

Event Time Altitude Azimuth Distance (km) Brightness Sun altitude
Rises 20:33:00 0° 288° (WNW) 3,558 9.5 -11.1°
Reaches altitude 10° 20:36:41 10° 310° (NW) 2,603 9.2 -11.5°
Maximum altitude 20:40:18 16° 347° (NNW) 2,174 8.4 -11.9°
Drops below altitude 10° 20:43:51 10° 24° (NNE) 2,533 8.1 -12.2°
Sets 20:47:21 0° 45° (NE) 3,415 8.5 -12.6°
